TimePDT,TemperatureF,Dew PointF,Humidity,Sea Level PressureIn,VisibilityMPH,Wind Direction,Wind SpeedMPH,Gust SpeedMPH,PrecipitationIn,Events,Conditions,WindDirDegrees,DateUTC
12:56 AM,51.1,43.0,74,30.01,10.0,SW,5.8,-,N/A,,Overcast,230,2012-05-03 07:56:00
1:56 AM,52.0,43.0,71,29.99,10.0,SW,5.8,-,N/A,,Overcast,220,2012-05-03 08:56:00
2:56 AM,52.0,43.0,71,29.98,10.0,SW,5.8,-,N/A,,Mostly Cloudy,220,2012-05-03 09:56:00
3:56 AM,51.8,42.8,71,29.99,10.0,SSW,5.8,-,N/A,,Mostly Cloudy,210,2012-05-03 10:56:00
4:56 AM,52.0,43.0,71,29.99,10.0,South,4.6,-,N/A,,Overcast,190,2012-05-03 11:56:00
5:56 AM,52.0,43.0,71,29.98,10.0,SSE,5.8,-,N/A,,Mostly Cloudy,150,2012-05-03 12:56:00
6:56 AM,52.0,43.0,71,30.00,10.0,South,6.9,-,N/A,,Mostly Cloudy,170,2012-05-03 13:56:00
7:56 AM,53.1,44.1,71,30.02,10.0,South,6.9,-,N/A,,Mostly Cloudy,170,2012-05-03 14:56:00
8:56 AM,54.0,45.0,72,30.04,10.0,SSW,12.7,19.6,N/A,,Overcast,200,2012-05-03 15:56:00
9:56 AM,55.0,46.0,72,30.04,10.0,South,15.0,-,N/A,,Mostly Cloudy,190,2012-05-03 16:56:00
10:56 AM,57.9,48.0,70,30.06,10.0,South,13.8,-,N/A,,Mostly Cloudy,180,2012-05-03 17:56:00
11:56 AM,60.1,48.9,67,30.06,10.0,SSW,15.0,-,N/A,,Overcast,200,2012-05-03 18:56:00
12:56 PM,59.0,48.9,69,30.07,10.0,South,8.1,-,0.00,,Mostly Cloudy,190,2012-05-03 19:56:00
1:56 PM,59.0,48.9,69,30.08,10.0,South,11.5,-,0.00,,Mostly Cloudy,190,2012-05-03 20:56:00
2:56 PM,61.0,48.9,64,30.07,10.0,SW,11.5,18.4,N/A,,Overcast,220,2012-05-03 21:56:00
3:56 PM,61.0,50.0,67,30.06,10.0,SSW,11.5,-,N/A,,Overcast,200,2012-05-03 22:56:00
4:56 PM,61.0,50.0,67,30.06,10.0,South,9.2,-,N/A,,Overcast,170,2012-05-03 23:56:00
5:56 PM,61.0,50.0,67,30.06,10.0,South,11.5,-,N/A,,Overcast,180,2012-05-04 00:56:00
6:56 PM,59.0,50.0,72,30.06,10.0,SSW,9.2,-,N/A,,Overcast,200,2012-05-04 01:56:00
7:32 PM,59.0,51.8,77,30.07,10.0,SSW,11.5,-,N/A,,Overcast,200,2012-05-04 02:32:00
7:53 PM,57.2,51.8,82,30.07,10.0,SSW,11.5,-,N/A,,Mostly Cloudy,210,2012-05-04 02:53:00
7:56 PM,57.9,51.1,78,30.07,10.0,SSW,10.4,-,N/A,,Mostly Cloudy,210,2012-05-04 02:56:00
8:40 PM,57.2,50.0,77,30.07,10.0,SSW,8.1,-,N/A,,Mostly Cloudy,210,2012-05-04 03:40:00
8:56 PM,57.0,50.0,77,30.08,10.0,SW,6.9,-,N/A,,Mostly Cloudy,220,2012-05-04 03:56:00
9:52 PM,57.2,51.8,82,30.09,10.0,Calm,Calm,-,N/A,,Mostly Cloudy,0,2012-05-04 04:52:00
9:56 PM,57.0,51.1,81,30.09,10.0,SW,4.6,-,N/A,,Mostly Cloudy,220,2012-05-04 04:56:00
10:56 PM,57.0,51.1,81,30.11,10.0,WSW,9.2,-,N/A,,Mostly Cloudy,240,2012-05-04 05:56:00
11:56 PM,55.9,50.0,80,30.11,10.0,West,8.1,-,N/A,,Overcast,260,2012-05-04 06:56:00